Stations météo

réclame
Mon MeteoGroup
Dunkerque, France (7010): Température de l'air & dewpoint: 17.09.2017 21:00:00 - 23.09.2017 21:00:00 (CEST)Dunkerque, France (7010): Vitesse du vent & gusts: 17.09.2017 21:00:00 - 23.09.2017 21:00:00 (CEST)Dunkerque, France (7010): Direction du vent: 17.09.2017 21:00:00 - 23.09.2017 21:00:00 (CEST)Dunkerque, France (7010): reduced air pressure: 17.09.2017 21:00:00 - 23.09.2017 21:00:00 (CEST)Dunkerque, France (7010): visibility: 17.09.2017 21:00:00 - 23.09.2017 21:00:00 (CEST)Dunkerque, France (7010): Quantités de précipitations: 17.09.2017 21:00:00 - 23.09.2017 21:00:00 (CEST)
Date & Time tt [°C] td [°C] ff [km/h] ff [knt] fx [km/h] fx [knt] dd ppp [hPa] vv [km] rr [mm]
23.09.2017 21:00:00 15,4 11,6 12 6 29 15 E 1022,0 - 0,0
23.09.2017 20:00:00 16,0 12,4 22 12 28 15 ENE 1021,9 - 0,0
23.09.2017 19:00:00 16,2 11,4 20 11 28 15 ENE 1022,0 - 0,0
23.09.2017 18:00:00 17,2 11,7 23 12 29 16 ENE 1022,0 - 0,0
23.09.2017 17:00:00 16,6 11,1 17 9 21 11 ENE 1022,4 - 0,0
23.09.2017 16:00:00 18,3 9,1 12 7 19 11 SE 1022,8 - 0,0
23.09.2017 15:00:00 18,0 9,3 10 6 17 9 SE 1023,3 - 0,0
23.09.2017 14:00:00 18,1 10,0 7 4 16 8 SSE 1023,6 - 0,0
23.09.2017 13:00:00 18,2 10,1 9 5 21 11 SSW 1023,9 - 0,0
23.09.2017 12:00:00 18,3 10,6 11 6 18 10 SE 1024,2 - 0,0
23.09.2017 11:00:00 16,3 9,5 11 6 15 8 SSE 1024,2 20 0,0
23.09.2017 10:00:00 14,5 8,7 10 5 15 8 SSE 1024,1 - 0,0
23.09.2017 09:00:00 12,0 8,1 9 5 13 7 S 1023,9 - 0,0
23.09.2017 08:00:00 10,3 8,1 10 5 13 7 S 1023,8 - 0,0
23.09.2017 07:00:00 10,8 8,0 10 6 17 9 S 1023,7 - 0,0
23.09.2017 06:00:00 10,8 8,4 12 6 15 8 S 1023,7 - 0,0
23.09.2017 05:00:00 10,6 8,0 4 2 11 6 SSW 1023,6 - 0,0
23.09.2017 04:00:00 11,1 8,0 8 4 13 7 S 1024,0 - 0,0
23.09.2017 03:00:00 11,4 7,7 3 1 15 8 SSW 1024,0 - 0,0
23.09.2017 02:00:00 11,9 8,0 4 2 10 5 SW 1024,0 - 0,0
23.09.2017 01:00:00 11,9 8,0 5 3 19 10 SSW 1023,9 - 0,0
23.09.2017 00:00:00 12,9 8,2 10 5 20 11 SSW 1023,7 - 0,0
22.09.2017 23:00:00 13,3 7,9 4 2 7 4 WNW 1023,7 - 0,0
22.09.2017 22:00:00 13,9 7,6 2 1 18 10 SW 1023,5 - 0,0
22.09.2017 21:00:00 14,6 8,1 12 7 20 11 SSW 1023,3 - 0,0
22.09.2017 20:00:00 15,3 9,4 6 3 15 8 NW 1022,7 - 0,0
22.09.2017 19:00:00 16,7 9,6 11 6 16 9 NW 1022,5 - 0,0
22.09.2017 18:00:00 16,5 9,2 11 6 14 8 NNW 1022,3 - 0,0
22.09.2017 17:00:00 16,7 8,6 9 5 17 9 NNW 1022,0 20 0,0
22.09.2017 16:00:00 16,5 9,4 11 6 19 10 NNW 1022,0 - 0,0
22.09.2017 15:00:00 16,8 9,7 12 7 17 9 NNW 1022,0 - 0,0
22.09.2017 14:00:00 16,4 10,3 11 6 16 9 NNW 1021,9 13 0,0
22.09.2017 13:00:00 16,5 10,6 11 6 16 9 NNW 1021,7 - 0,0
22.09.2017 12:00:00 15,5 10,7 11 6 18 10 NNW 1021,6 - 0,0
22.09.2017 11:00:00 16,2 10,9 11 6 17 9 NNW 1021,3 - 0,0
22.09.2017 10:00:00 16,1 11,3 12 7 19 11 NNW 1020,8 - 0,0
22.09.2017 09:00:00 15,5 11,7 12 6 20 11 NNW 1020,2 - 0,0
22.09.2017 08:00:00 15,3 12,1 11 6 24 13 NNW 1020,0 13 0,0
22.09.2017 07:00:00 15,5 12,3 14 8 23 12 NNW 1019,3 - 0,0
22.09.2017 06:00:00 15,6 13,1 12 7 21 12 WNW 1019,2 - 0,0
22.09.2017 05:00:00 15,6 13,1 13 7 19 11 NW 1019,1 - 0,2
22.09.2017 04:00:00 15,5 13,2 11 6 24 13 NW 1019,0 - 0,0
22.09.2017 03:00:00 16,3 13,4 9 5 18 10 SW 1019,2 - 0,0
22.09.2017 02:00:00 16,4 12,6 8 4 15 8 SSW 1019,0 - 0,0
22.09.2017 01:00:00 16,6 12,5 9 5 21 11 W 1018,5 - 0,0
22.09.2017 00:00:00 16,8 12,9 13 7 20 11 W 1018,3 - 0,0
21.09.2017 23:00:00 16,0 10,3 9 5 15 8 S 1018,2 20 0,0
21.09.2017 22:00:00 16,4 10,9 8 4 11 6 S 1018,1 - 0,0
21.09.2017 21:00:00 16,9 10,7 8 4 10 5 SSE 1018,0 - 0,0
21.09.2017 20:00:00 17,7 10,1 8 4 23 12 SSW 1017,6 18 0,0
21.09.2017 19:00:00 18,7 9,7 11 6 29 15 SSW 1017,3 - 0,0
21.09.2017 18:00:00 19,5 9,1 20 11 34 18 S 1016,9 - 0,0
21.09.2017 17:00:00 19,9 9,2 18 10 29 16 S 1017,0 18 0,0
21.09.2017 16:00:00 19,8 9,4 21 12 39 21 S 1017,1 - 0,0
21.09.2017 15:00:00 19,8 9,1 24 13 37 20 S 1017,0 - 0,0
21.09.2017 14:00:00 19,3 8,9 22 12 36 19 S 1017,5 - 0,0
21.09.2017 13:00:00 18,0 8,8 19 11 36 19 S 1017,9 - 0,0
21.09.2017 12:00:00 17,1 9,8 21 11 32 18 S 1018,0 - 0,0
21.09.2017 11:00:00 14,6 9,0 18 10 26 14 S 1018,2 - 0,0
21.09.2017 10:00:00 12,6 8,7 15 8 24 13 S 1018,2 - 0,0
21.09.2017 09:00:00 11,6 8,4 14 8 23 12 S 1018,0 - 0,0
21.09.2017 08:00:00 11,0 8,2 16 8 23 13 S 1018,0 - 0,0
21.09.2017 07:00:00 10,7 8,3 13 7 22 12 S 1017,9 - 0,0
21.09.2017 06:00:00 10,8 8,4 14 7 22 12 S 1017,9 - 0,0
21.09.2017 05:00:00 10,9 8,5 14 7 20 11 S 1018,3 - 0,0
21.09.2017 04:00:00 11,3 8,9 14 8 20 11 S 1018,5 - 0,0
21.09.2017 03:00:00 11,8 9,2 11 6 16 9 S 1018,8 - 0,0
21.09.2017 02:00:00 12,4 9,4 9 5 15 8 S 1018,9 - 0,0
21.09.2017 01:00:00 12,5 9,9 9 5 14 8 S 1019,0 - 0,0
21.09.2017 00:00:00 13,1 10,3 10 5 14 7 S 1019,0 - 0,0
20.09.2017 23:00:00 13,6 10,8 7 4 12 6 S 1019,1 20 0,0
20.09.2017 22:00:00 14,2 10,6 9 5 15 8 S 1019,3 - 0,0
20.09.2017 21:00:00 14,8 11,0 10 5 15 8 S 1019,5 - 0,0
20.09.2017 20:00:00 15,7 10,9 12 7 21 11 SSW 1019,3 - 0,0
20.09.2017 19:00:00 15,7 11,5 10 6 21 12 SSW 1019,3 - 0,0
20.09.2017 18:00:00 15,7 11,7 16 9 42 23 SW 1019,6 - 0,0
20.09.2017 17:00:00 16,9 11,8 19 10 32 18 SW 1019,8 - 0,0
20.09.2017 16:00:00 16,4 12,0 14 8 25 14 S 1020,1 - 0,0
20.09.2017 15:00:00 15,3 11,1 16 9 32 17 SSW 1020,4 - 0,0
20.09.2017 14:00:00 16,5 10,6 16 9 37 20 SW 1020,4 - 0,0
20.09.2017 13:00:00 16,6 10,7 18 10 27 14 SSW 1020,5 - 0,0
20.09.2017 12:00:00 16,5 11,0 13 7 22 12 SSW 1020,9 - 0,0
20.09.2017 11:00:00 15,9 11,7 13 7 21 11 S 1021,0 15 0,0
20.09.2017 10:00:00 13,0 10,0 8 4 16 9 S 1021,0 - 0,0
20.09.2017 09:00:00 11,3 9,2 9 5 17 9 SSW 1020,8 - 0,0
20.09.2017 08:00:00 10,0 8,3 13 7 18 10 S 1020,8 - 0,0
20.09.2017 07:00:00 10,2 8,1 6 3 17 9 SSW 1020,7 - 0,0
20.09.2017 06:00:00 10,1 7,9 4 2 20 11 WNW 1020,8 - 0,0
20.09.2017 05:00:00 10,6 7,8 14 8 23 12 SSW 1021,0 - 0,0
20.09.2017 04:00:00 11,5 8,0 15 8 23 12 SSW 1021,3 - 0,0
20.09.2017 03:00:00 11,5 8,2 8 5 13 7 SSW 1021,7 - 0,0
20.09.2017 02:00:00 12,0 8,8 9 5 16 9 SSW 1021,8 - 0,0
20.09.2017 01:00:00 11,6 8,8 10 5 18 10 SSW 1022,1 - 0,0
20.09.2017 00:00:00 12,9 9,0 13 7 19 10 S 1022,0 - 0,0
19.09.2017 23:00:00 13,3 9,2 10 5 16 8 S 1022,2 25 0,2
19.09.2017 22:00:00 13,9 9,3 6 4 19 10 SSW 1022,3 - 0,0
19.09.2017 21:00:00 14,3 9,3 13 7 22 12 WNW 1022,2 - 0,0
19.09.2017 20:00:00 14,3 8,9 11 6 21 11 WNW 1021,7 - 0,0
19.09.2017 19:00:00 14,9 10,3 14 8 31 17 NW 1021,6 - 0,0
19.09.2017 18:00:00 14,5 10,1 24 13 38 21 NW 1021,5 - 0,0
19.09.2017 17:00:00 14,8 11,0 25 13 39 21 WNW 1021,3 15 0,0
19.09.2017 16:00:00 14,8 11,0 23 12 38 20 WNW 1021,0 - 0,0
19.09.2017 15:00:00 15,4 11,6 21 12 30 16 WNW 1020,8 - 0,0
19.09.2017 14:00:00 16,7 11,0 16 9 24 13 NW 1020,8 - 0,0
19.09.2017 13:00:00 15,4 10,6 14 7 29 15 NNW 1020,5 - 0,0
19.09.2017 12:00:00 14,7 10,5 21 11 33 18 NNW 1020,3 - 0,0
19.09.2017 11:00:00 14,1 10,3 24 13 41 22 NNW 1020,0 20 0,2
19.09.2017 10:00:00 13,9 9,7 30 16 42 23 NNW 1019,3 - 0,0
19.09.2017 09:00:00 13,6 9,4 24 13 38 21 NW 1018,5 - 0,0
19.09.2017 08:00:00 13,6 9,4 25 13 42 23 NNW 1018,3 20 0,0
19.09.2017 07:00:00 13,6 9,4 29 15 40 22 NNW 1018,0 - 0,0
19.09.2017 06:00:00 13,6 9,2 28 15 41 22 NNW 1017,7 - 0,0
19.09.2017 05:00:00 13,7 8,9 28 15 40 22 NNW 1017,5 20 0,0
19.09.2017 04:00:00 13,9 8,3 27 15 40 21 NNW 1017,4 - 0,0
19.09.2017 03:00:00 14,1 9,3 27 14 38 20 NW 1017,4 - 0,0
19.09.2017 02:00:00 14,2 9,2 26 14 39 21 NW 1017,4 - 0,0
19.09.2017 01:00:00 14,3 9,5 21 12 37 20 NW 1017,4 - 0,0
19.09.2017 00:00:00 14,6 9,6 29 15 37 20 NW 1017,4 - 0,0
18.09.2017 23:00:00 14,6 9,0 22 12 40 21 NNW 1017,4 18 0,0
18.09.2017 22:00:00 14,7 9,5 26 14 39 21 NNW 1017,1 - 0,0
18.09.2017 21:00:00 14,7 9,1 22 12 44 24 NNW 1017,0 - 0,4
18.09.2017 20:00:00 13,4 8,2 26 14 43 23 NNW 1016,4 - 0,0
18.09.2017 19:00:00 14,1 10,3 20 11 48 26 NNW 1016,2 - 0,4
18.09.2017 18:00:00 15,6 10,6 31 17 44 24 NNW 1015,7 - 0,2
18.09.2017 17:00:00 16,0 10,1 24 13 40 22 NW 1015,6 15 0,0
18.09.2017 16:00:00 16,0 10,5 28 15 39 21 WNW 1015,6 - 0,0
18.09.2017 15:00:00 15,7 10,7 26 14 44 24 WNW 1015,6 - 0,0
18.09.2017 14:00:00 15,4 10,6 27 15 40 22 NW 1015,3 - 0,0
18.09.2017 13:00:00 15,1 10,9 29 16 48 26 NW 1015,4 - 0,0
18.09.2017 12:00:00 14,6 11,2 25 14 40 22 NW 1014,7 - 0,2
18.09.2017 11:00:00 14,6 10,2 25 13 36 19 NW 1014,6 15 0,0
18.09.2017 10:00:00 13,8 9,8 17 9 37 20 WNW 1014,7 - 0,8
18.09.2017 09:00:00 13,5 10,3 25 13 34 19 WNW 1014,5 - 0,0
18.09.2017 08:00:00 13,7 10,1 22 12 31 17 NW 1014,1 13 0,0
18.09.2017 07:00:00 13,8 8,8 16 9 27 14 WNW 1014,0 - 0,0
18.09.2017 06:00:00 13,8 9,2 16 9 26 14 NW 1014,0 - 0,2
18.09.2017 05:00:00 12,3 9,7 13 7 20 11 SSW 1013,8 17 0,0
18.09.2017 04:00:00 12,2 9,4 12 6 23 13 SSW 1013,9 - 0,8
18.09.2017 03:00:00 12,5 10,2 8 5 15 8 SSW 1014,2 - 0,2
18.09.2017 02:00:00 13,5 9,3 10 6 21 12 WSW 1014,2 20 0,0
18.09.2017 01:00:00 13,1 8,2 9 5 - - NW 1014,1 - -
18.09.2017 00:00:00 15,1 9,9 12 6 31 17 NW 1014,0 - 0,6
17.09.2017 23:00:00 15,2 10,0 21 11 32 17 NW 1013,9 20 0,4
17.09.2017 22:00:00 14,2 10,6 18 10 30 16 WNW 1013,9 - 0,8
17.09.2017 21:00:00 14,8 9,4 16 9 23 12 NW 1013,6 - 0,0

tt = Température de l'air
td = dewpoint
ff = Vitesse du vent
fx = gusts
dd = Direction du vent
ppp = reduced air pressure
vv = visibility
rr = Quantités de précipitations

stations d'obs. à proximité